DW8427 Weather Reports


Display with metric or nautical units.
time (UTC)temp
F
wind
direction
speed
MPH
gust
MPH
rain 1hr
in
rain 24hr
in
rain mn
in
humidity
%
barometer
mb
20260903071543 63 123 0.0 6.0 0.00 0.00 0.00 69 1015.3
20260903070040 63 78 1.0 5.0 0.00 0.00 0.00 67 1015.3
20260903064539 64 89 1.0 5.0 0.00 0.00 0.00 66 1015.3
20260903063043 65 115 0.0 3.0 0.00 0.00 0.00 65 1015.3
20260903061540 65 105 0.0 3.0 0.00 0.00 0.00 64 1015.3
20260903060049 65 130 0.0 3.0 0.00 0.00 0.00 63 1015.4
20260903054537 66 115 0.0 3.0 0.00 0.00 0.00 63 1015.4
20260903053043 66 110 0.0 0.0 0.00 0.00 0.00 63 1015.4
20260903051539 67 105 0.0 0.0 0.00 0.00 0.00 61 1015.3
20260903050042 67 113 0.0 2.0 0.00 0.00 0.00 60 1015.4
20260903044539 68 122 0.0 0.0 0.00 0.00 0.00 60 1015.4
20260903043036 68 37 0.0 0.0 0.00 0.00 0.00 61 1015.3
20260903041537 67 37 0.0 0.0 0.00 0.00 0.00 62 1015.2
20260903040034 68 37 0.0 0.0 0.00 0.00 0.00 60 1015.0
20260903034534 68 37 0.0 0.0 0.00 0.00 0.00 60 1014.7
20260903033033 69 37 0.0 0.0 0.00 0.00 0.00 59 1014.5
20260903031540 70 37 0.0 0.0 0.00 0.00 0.00 58 1014.4
20260903030043 71 34 0.0 1.0 0.00 0.00 0.00 58 1014.3
20260903024530 72 296 0.0 1.0 0.00 0.00 0.00 58 1014.4
20260903023032 73 1 0.0 4.0 0.00 0.00 0.00 57 1014.4
20260903021540 74 338 0.0 0.0 0.00 0.00 0.00 55 1014.4
20260903020035 75 15 0.0 1.0 0.00 0.00 0.00 55 1014.4
20260903014527 76 302 0.0 1.0 0.00 0.00 0.00 54 1014.5
20260903013027 77 115 0.0 3.0 0.00 0.00 0.00 52 1014.6
20260903011533 77 327 0.0 3.0 0.00 0.00 0.00 52 1014.6
20260903010031 78 77 0.0 4.0 0.00 0.00 0.00 51 1014.6
20260903004529 78 301 0.0 5.0 0.00 0.00 0.00 51 1014.7
20260903003024 77 338 0.0 8.0 0.00 0.00 0.00 52 1014.8
20260903001523 78 256 0.0 6.0 0.00 0.00 0.00 51 1014.9
20260903000036 79 278 0.0 11.0 0.00 0.00 0.00 50 1014.9
20260902234518 79 181 0.0 4.0 0.00 0.00 0.00 51 1015.0
20260902233021 78 22 0.0 8.0 0.00 0.00 0.00 52 1015.1
20260902231518 79 300 0.0 4.0 0.00 0.00 0.00 51 1015.3
20260902230013 78 269 0.0 7.0 0.00 0.00 0.00 52 1015.3
20260902224512 77 6 1.0 8.0 0.00 0.00 0.00 52 1015.4
20260902223019 78 238 0.0 4.0 0.00 0.00 0.00 51 1015.6
20260902221510 78 192 1.0 7.0 0.00 0.00 0.00 50 1015.6
20260902220015 78 136 2.0 9.0 0.00 0.00 0.00 50 1015.7
20260902214517 78 46 1.0 6.0 0.00 0.00 0.00 51 1015.9
20260902213002 78 241 1.0 4.0 0.00 0.00 0.00 51 1016.1
20260902211601 77 141 1.0 4.0 0.00 0.00 0.00 52 1016.1
20260902210059 78 299 0.0 11.0 0.00 0.00 0.00 52 1016.3
20260902204557 76 250 2.0 13.0 0.00 0.00 0.00 53 1016.3
20260902203056 76 278 1.0 6.0 0.00 0.00 0.00 53 1016.5
20260902201556 77 96 0.0 3.0 0.00 0.00 0.00 53 1016.7
20260902200054 78 145 0.0 3.0 0.00 0.00 0.00 53 1016.8
20260902194553 76 281 1.0 8.0 0.00 0.00 0.00 53 1016.9
20260902193051 76 142 0.0 6.0 0.00 0.00 0.00 54 1017.1
20260902191549 73 120 0.0 6.0 0.00 0.00 0.00 57 1017.3
20260902190044 72 241 0.0 8.0 0.00 0.00 0.00 58 1017.5
20260902184546 72 167 0.0 4.0 0.00 0.00 0.00 59 1017.5
20260902183047 73 301 2.0 6.0 0.00 0.00 0.00 59 1017.5
20260902181543 73 247 2.0 6.0 0.00 0.00 0.00 58 1017.6
20260902180041 72 118 2.0 5.0 0.00 0.00 0.00 60 1017.5
20260902174549 71 132 0.0 3.0 0.00 0.00 0.00 62 1017.5
20260902173102 71 191 1.0 5.0 0.00 0.00 0.00 62 1017.6
20260902171542 70 120 1.0 4.0 0.00 0.00 0.00 63 1017.5
20260902170034 70 134 0.0 2.0 0.00 0.00 0.00 63 1017.4
20260902164531 67 85 1.0 6.0 0.00 0.00 0.00 67 1017.3
20260902163028 66 81 0.0 5.0 0.00 0.00 0.00 68 1017.2
20260902161527 66 80 0.0 4.0 0.00 0.00 0.00 69 1017.3
20260902160034 65 122 0.0 3.0 0.00 0.00 0.00 71 1017.3
20260902154534 64 139 1.0 2.0 0.00 0.00 0.00 72 1017.5
20260902153033 63 123 1.0 5.0 0.00 0.00 0.00 71 1017.3
20260902151515 62 126 0.0 1.0 0.00 0.00 0.00 74 1017.2
20260902150012 62 118 0.0 0.0 0.00 0.00 0.00 75 1017.2
20260902144513 61 118 0.0 3.0 0.00 0.00 0.00 75 1017.1
20260902143008 61 94 0.0 3.0 0.00 0.00 0.00 76 1016.9
20260902141506 60 98 0.0 0.0 0.00 0.00 0.00 77 1017.0
20260902140007 60 113 0.0 0.0 0.00 0.00 0.00 78 1017.0
20260902134503 59 113 0.0 1.0 0.00 0.00 0.00 80 1016.9
20260902133002 59 98 0.0 1.0 0.00 0.00 0.00 78 1016.5
20260902131628 59 103 0.0 1.0 0.00 0.00 0.00 78 1016.3
20260902130059 59 111 0.0 1.0 0.00 0.00 0.00 78 1016.4
20260902124608 59 108 0.0 2.0 0.00 0.00 0.00 78 1016.3
20260902123141 59 115 0.0 2.0 0.00 0.00 0.00 77 1016.3
20260902121557 60 91 0.0 2.0 0.00 0.00 0.00 77 1016.3
20260902120056 59 102 0.0 2.0 0.00 0.00 0.00 77 1016.4
20260902114555 59 96 0.0 3.0 0.00 0.00 0.00 77 1016.4
20260902113054 59 113 0.0 5.0 0.00 0.00 0.00 77 1016.2
20260902111558 59 98 0.0 2.0 0.00 0.00 0.00 77 1016.2
20260902110058 59 107 0.0 2.0 0.00 0.00 0.00 77 1016.3
20260902104552 59 90 0.0 3.0 0.00 0.00 0.00 76 1016.5
20260902103050 59 121 0.0 2.0 0.00 0.00 0.00 76 1016.4
20260902101555 59 102 0.0 3.0 0.00 0.00 0.00 76 1016.6
20260902100048 59 120 0.0 2.0 0.00 0.00 0.00 76 1016.6
20260902094551 59 114 0.0 2.0 0.00 0.00 0.00 76 1016.6
20260902093046 59 103 0.0 1.0 0.00 0.00 0.00 76 1016.7
20260902091600 59 100 0.0 3.0 0.00 0.00 0.00 76 1016.6
20260902090043 59 107 0.0 4.0 0.00 0.00 0.00 76 1016.5
20260902084548 59 140 1.0 4.0 0.00 0.00 0.00 76 1016.5
20260902083042 59 107 0.0 4.0 0.00 0.00 0.00 76 1016.5
20260902081539 59 95 1.0 6.0 0.00 0.00 0.00 75 1016.5
20260902080033 60 124 1.0 5.0 0.00 0.00 0.00 75 1016.4
20260902074532 60 134 2.0 5.0 0.00 0.00 0.00 75 1016.2
20260902073034 60 133 2.0 7.0 0.00 0.00 0.00 74 1016.2